International Skating Union - Official Site

ISU World Single Distance Championships 2015
February 12-15, 2015

Draw | Lap Times | Index | Classification

Referee: Jan  BOLT  (NED)
Starter: Åke  FALK  (SWE)
StartTime: EndTime: Air Temp: Ice Temp: Humidity:
19:33 21:37
Result 10000m Men
Rankings as of Feb 12 2015 9:38PM
Rank: No.: Name: Nation: Time: Behind: Points:
1 55 Jorrit  Bergsma NED NED 12:54.82400m - 34.66 - (34.6)
800m - 1:05.09 - (30.4)
1200m - 1:35.92 - (30.8)
1600m - 2:06.74 - (30.8)
2000m - 2:37.79 - (31.0)
2400m - 3:08.56 - (30.7)
2800m - 3:39.29 - (30.7)
3200m - 4:10.08 - (30.7)
3600m - 4:40.71 - (30.6)
4000m - 5:11.45 - (30.7)
4400m - 5:42.24 - (30.7)
4800m - 6:12.72 - (30.4)
5200m - 6:43.24 - (30.5)
5600m - 7:13.72 - (30.4)
6000m - 7:44.29 - (30.5)
6400m - 8:14.92 - (30.6)
6800m - 8:45.70 - (30.7)
7200m - 9:16.41 - (30.7)
7600m - 9:47.15 - (30.7)
8000m - 10:17.93 - (30.7)
8400m - 10:49.08 - (31.1)
8800m - 11:20.17 - (31.0)
9200m - 11:51.34 - (31.1)
9600m - 12:22.74 - (31.4)
10000m - 12:54.82 - (32.0)
38.741
2 59 Erik Jan  Kooiman NED NED 13:02.57400m - 35.81 - (35.8)
800m - 1:07.17 - (31.3)
1200m - 1:38.85 - (31.6)
1600m - 2:10.24 - (31.3)
2000m - 2:41.45 - (31.2)
2400m - 3:12.45 - (31.0)
2800m - 3:43.71 - (31.2)
3200m - 4:14.90 - (31.1)
3600m - 4:46.10 - (31.2)
4000m - 5:17.23 - (31.1)
4400m - 5:48.42 - (31.1)
4800m - 6:19.45 - (31.0)
5200m - 6:50.71 - (31.2)
5600m - 7:21.84 - (31.1)
6000m - 7:52.87 - (31.0)
6400m - 8:23.87 - (31.0)
6800m - 8:54.79 - (30.9)
7200m - 9:25.55 - (30.7)
7600m - 9:56.44 - (30.8)
8000m - 10:27.24 - (30.8)
8400m - 10:58.40 - (31.1)
8800m - 11:29.45 - (31.0)
9200m - 12:00.51 - (31.0)
9600m - 12:31.59 - (31.0)
10000m - 13:02.57 - (30.9)
7.75 39.128
3 27 Patrick  Beckert GER GER 13:10.95400m - 35.15 - (35.1)
800m - 1:05.89 - (30.7)
1200m - 1:37.54 - (31.6)
1600m - 2:09.53 - (31.9)
2000m - 2:41.32 - (31.7)
2400m - 3:13.28 - (31.9)
2800m - 3:45.07 - (31.7)
3200m - 4:16.61 - (31.5)
3600m - 4:47.89 - (31.2)
4000m - 5:19.30 - (31.4)
4400m - 5:50.50 - (31.2)
4800m - 6:21.64 - (31.1)
5200m - 6:52.90 - (31.2)
5600m - 7:24.19 - (31.3)
6000m - 7:55.39 - (31.2)
6400m - 8:26.75 - (31.3)
6800m - 8:58.22 - (31.4)
7200m - 9:29.77 - (31.5)
7600m - 10:01.49 - (31.7)
8000m - 10:33.38 - (31.8)
8400m - 11:05.36 - (31.9)
8800m - 11:37.18 - (31.8)
9200m - 12:08.92 - (31.7)
9600m - 12:39.95 - (31.0)
10000m - 13:10.95 - (31.0)
16.13 39.547
4 75 Sverre  Lunde Pedersen NOR NOR 13:12.40400m - 35.23 - (35.2)
800m - 1:06.62 - (31.3)
1200m - 1:38.15 - (31.5)
1600m - 2:09.74 - (31.5)
2000m - 2:41.45 - (31.7)
2400m - 3:13.07 - (31.6)
2800m - 3:44.72 - (31.6)
3200m - 4:15.85 - (31.1)
3600m - 4:47.49 - (31.6)
4000m - 5:18.77 - (31.2)
4400m - 5:50.02 - (31.2)
4800m - 6:21.28 - (31.2)
5200m - 6:52.76 - (31.4)
5600m - 7:23.95 - (31.1)
6000m - 7:55.59 - (31.6)
6400m - 8:26.84 - (31.2)
6800m - 8:58.46 - (31.6)
7200m - 9:29.52 - (31.0)
7600m - 10:00.79 - (31.2)
8000m - 10:31.94 - (31.1)
8400m - 11:03.22 - (31.2)
8800m - 11:34.59 - (31.3)
9200m - 12:06.15 - (31.5)
9600m - 12:38.47 - (32.3)
10000m - 13:12.40 - (33.9)
17.58 39.620
5 89 Aleksandr  Rumyantsev RUS RUS 13:14.62400m - 35.09 - (35.0)
800m - 1:06.70 - (31.6)
1200m - 1:38.62 - (31.9)
1600m - 2:10.22 - (31.6)
2000m - 2:41.72 - (31.5)
2400m - 3:13.32 - (31.6)
2800m - 3:44.70 - (31.3)
3200m - 4:15.87 - (31.1)
3600m - 4:46.98 - (31.1)
4000m - 5:18.19 - (31.2)
4400m - 5:49.07 - (30.8)
4800m - 6:20.30 - (31.2)
5200m - 6:51.55 - (31.2)
5600m - 7:23.06 - (31.5)
6000m - 7:54.49 - (31.4)
6400m - 8:25.93 - (31.4)
6800m - 8:57.44 - (31.5)
7200m - 9:29.05 - (31.6)
7600m - 10:00.79 - (31.7)
8000m - 10:33.04 - (32.2)
8400m - 11:05.24 - (32.2)
8800m - 11:37.42 - (32.1)
9200m - 12:09.60 - (32.1)
9600m - 12:41.99 - (32.3)
10000m - 13:14.62 - (32.6)
19.80 39.731
6 6 Ted-Jan  Bloemen CAN CAN 13:17.24400m - 34.31 - (34.3)
800m - 1:05.51 - (31.1)
1200m - 1:37.03 - (31.5)
1600m - 2:08.58 - (31.5)
2000m - 2:40.05 - (31.4)
2400m - 3:11.74 - (31.6)
2800m - 3:43.32 - (31.5)
3200m - 4:14.87 - (31.5)
3600m - 4:46.11 - (31.2)
4000m - 5:17.25 - (31.1)
4400m - 5:48.41 - (31.1)
4800m - 6:19.77 - (31.3)
5200m - 6:51.56 - (31.7)
5600m - 7:23.12 - (31.5)
6000m - 7:55.06 - (31.9)
6400m - 8:26.77 - (31.7)
6800m - 8:58.61 - (31.8)
7200m - 9:30.41 - (31.8)
7600m - 10:02.77 - (32.3)
8000m - 10:35.27 - (32.5)
8400m - 11:07.85 - (32.5)
8800m - 11:40.21 - (32.3)
9200m - 12:12.50 - (32.2)
9600m - 12:44.92 - (32.4)
10000m - 13:17.24 - (32.3)
22.42 39.862
7 52 Seung-Hoon  Lee KOR KOR 13:19.03400m - 35.54 - (35.5)
800m - 1:06.63 - (31.0)
1200m - 1:38.40 - (31.7)
1600m - 2:10.23 - (31.8)
2000m - 2:42.10 - (31.8)
2400m - 3:13.94 - (31.8)
2800m - 3:45.66 - (31.7)
3200m - 4:17.46 - (31.8)
3600m - 4:49.37 - (31.9)
4000m - 5:21.42 - (32.0)
4400m - 5:53.28 - (31.8)
4800m - 6:25.01 - (31.7)
5200m - 6:56.84 - (31.8)
5600m - 7:28.65 - (31.8)
6000m - 8:00.61 - (31.9)
6400m - 8:32.29 - (31.6)
6800m - 9:03.98 - (31.6)
7200m - 9:35.94 - (31.9)
7600m - 10:08.10 - (32.1)
8000m - 10:40.18 - (32.0)
8400m - 11:12.49 - (32.3)
8800m - 11:44.43 - (31.9)
9200m - 12:16.36 - (31.9)
9600m - 12:47.97 - (31.6)
10000m - 13:19.03 - (31.0)
24.21 39.951
8 3 Bart  Swings BEL BEL 13:22.85400m - 34.70 - (34.7)
800m - 1:06.16 - (31.4)
1200m - 1:37.96 - (31.8)
1600m - 2:09.59 - (31.6)
2000m - 2:41.30 - (31.7)
2400m - 3:12.81 - (31.5)
2800m - 3:44.29 - (31.4)
3200m - 4:15.74 - (31.4)
3600m - 4:47.31 - (31.5)
4000m - 5:18.86 - (31.5)
4400m - 5:50.39 - (31.5)
4800m - 6:22.10 - (31.7)
5200m - 6:53.61 - (31.5)
5600m - 7:25.36 - (31.7)
6000m - 7:57.12 - (31.7)
6400m - 8:28.73 - (31.6)
6800m - 9:00.59 - (31.8)
7200m - 9:32.43 - (31.8)
7600m - 10:04.35 - (31.9)
8000m - 10:36.52 - (32.1)
8400m - 11:08.98 - (32.4)
8800m - 11:42.03 - (33.0)
9200m - 12:15.43 - (33.3)
9600m - 12:49.05 - (33.6)
10000m - 13:22.85 - (33.8)
28.03 40.142
9 26 Alexej  Baumgärtner GER GER 13:30.24400m - 34.91 - (34.9)
800m - 1:06.03 - (31.1)
1200m - 1:38.01 - (31.9)
1600m - 2:09.72 - (31.7)
2000m - 2:41.85 - (32.1)
2400m - 3:13.75 - (31.9)
2800m - 3:45.84 - (32.0)
3200m - 4:17.86 - (32.0)
3600m - 4:49.99 - (32.1)
4000m - 5:21.96 - (31.9)
4400m - 5:54.27 - (32.3)
4800m - 6:26.27 - (32.0)
5200m - 6:58.51 - (32.2)
5600m - 7:30.45 - (31.9)
6000m - 8:02.56 - (32.1)
6400m - 8:34.53 - (31.9)
6800m - 9:06.59 - (32.0)
7200m - 9:38.82 - (32.2)
7600m - 10:11.28 - (32.4)
8000m - 10:44.03 - (32.7)
8400m - 11:17.15 - (33.1)
8800m - 11:50.24 - (33.0)
9200m - 12:23.51 - (33.2)
9600m - 12:56.94 - (33.4)
10000m - 13:30.24 - (33.3)
35.42 40.512
10 91 Yevgeny  Seryaev RUS RUS 13:36.34400m - 34.86 - (34.8)
800m - 1:05.61 - (30.7)
1200m - 1:36.52 - (30.9)
1600m - 2:07.96 - (31.4)
2000m - 2:39.47 - (31.5)
2400m - 3:10.82 - (31.3)
2800m - 3:42.49 - (31.6)
3200m - 4:14.32 - (31.8)
3600m - 4:46.25 - (31.9)
4000m - 5:18.21 - (31.9)
4400m - 5:50.29 - (32.0)
4800m - 6:22.48 - (32.1)
5200m - 6:54.72 - (32.2)
5600m - 7:27.43 - (32.7)
6000m - 8:00.11 - (32.6)
6400m - 8:33.13 - (33.0)
6800m - 9:06.45 - (33.3)
7200m - 9:40.05 - (33.6)
7600m - 10:13.81 - (33.7)
8000m - 10:47.49 - (33.6)
8400m - 11:21.31 - (33.8)
8800m - 11:54.86 - (33.5)
9200m - 12:28.72 - (33.8)
9600m - 13:02.28 - (33.5)
10000m - 13:36.34 - (34.0)
41.52 40.817
11 5 Jordan  Belchos CAN CAN 13:41.72400m - 35.48 - (35.4)
800m - 1:06.81 - (31.3)
1200m - 1:38.07 - (31.2)
1600m - 2:10.12 - (32.0)
2000m - 2:41.99 - (31.8)
2400m - 3:13.93 - (31.9)
2800m - 3:45.90 - (31.9)
3200m - 4:18.14 - (32.2)
3600m - 4:50.42 - (32.2)
4000m - 5:22.80 - (32.3)
4400m - 5:55.44 - (32.6)
4800m - 6:28.28 - (32.8)
5200m - 7:01.16 - (32.8)
5600m - 7:34.45 - (33.2)
6000m - 8:07.83 - (33.3)
6400m - 8:41.34 - (33.5)
6800m - 9:14.84 - (33.4)
7200m - 9:48.28 - (33.4)
7600m - 10:21.99 - (33.7)
8000m - 10:55.31 - (33.3)
8400m - 11:28.70 - (33.3)
8800m - 12:01.99 - (33.3)
9200m - 12:35.62 - (33.6)
9600m - 13:08.94 - (33.3)
10000m - 13:41.72 - (32.7)
46.90 41.086
12 96 Martin  Hänggi SUI SUI 13:57.65400m - 35.79 - (35.7)
800m - 1:07.27 - (31.4)
1200m - 1:39.13 - (31.8)
1600m - 2:10.93 - (31.8)
2000m - 2:43.01 - (32.0)
2400m - 3:15.40 - (32.3)
2800m - 3:47.85 - (32.4)
3200m - 4:20.43 - (32.5)
3600m - 4:53.11 - (32.6)
4000m - 5:25.81 - (32.7)
4400m - 5:58.70 - (32.9)
4800m - 6:32.10 - (33.4)
5200m - 7:05.77 - (33.6)
5600m - 7:39.58 - (33.8)
6000m - 8:13.47 - (33.8)
6400m - 8:47.74 - (34.2)
6800m - 9:21.92 - (34.1)
7200m - 9:56.12 - (34.2)
7600m - 10:30.20 - (34.0)
8000m - 11:04.44 - (34.2)
8400m - 11:39.14 - (34.7)
8800m - 12:13.55 - (34.4)
9200m - 12:47.87 - (34.3)
9600m - 13:22.56 - (34.7)
10000m - 13:57.65 - (35.0)
62.83 41.882